SWR199 UEEE-UIII

Flight info

Callsign SWR199
Flight time N/A
Altitude 35000
Route LEPRI6F LEPRI B155 OLDEP W269 GARAK W225 KA KA4B
Aircraft A333/H-SDE3GHIJ2J3J5M1RVWXY/LB2D1

Departure

Time 2026-05-08 01:09
Airport Platon Oyunsky Yakutsk International Airport (UEEE)

Arrival

Time N/A
Airport Irkutsk International Airport (UIII)
Time Latitude Longitude Altitude Speed Heading
2026-05-08 00:56 62.08084 129.75494 311 ft 0 kts 37°
2026-05-08 01:03 62.08090 129.75503 311 ft 6 kts 37°
2026-05-08 01:04 62.08195 129.75604 309 ft 25 kts 342°
2026-05-08 01:04 62.08305 129.75297 312 ft 17 kts 301°
2026-05-08 01:04 62.08421 129.75107 314 ft 26 kts 34°
2026-05-08 01:04 62.08627 129.75362 312 ft 43 kts 28°
2026-05-08 01:05 62.08733 129.75496 310 ft 2 kts 60°
2026-05-08 01:05 62.08696 129.75591 309 ft 17 kts 139°
2026-05-08 01:05 62.08584 129.75884 308 ft 23 kts 122°
2026-05-08 01:05 62.08562 129.75957 307 ft 12 kts 122°
2026-05-08 01:06 62.08578 129.76241 306 ft 30 kts 50°
2026-05-08 01:06 62.08786 129.76599 305 ft 47 kts 37°
2026-05-08 01:06 62.09098 129.77078 304 ft 63 kts 37°
2026-05-08 01:06 62.09491 129.77733 302 ft 79 kts 39°
2026-05-08 01:07 62.09971 129.78484 302 ft 92 kts 40°
2026-05-08 01:07 62.10398 129.79222 299 ft 27 kts 34°
2026-05-08 01:07 62.10588 129.79359 299 ft 33 kts 19°
2026-05-08 01:07 62.10522 129.79576 298 ft 32 kts 218°
2026-05-08 01:08 62.10373 129.79134 299 ft 60 kts 219°
2026-05-08 01:08 62.09831 129.78265 302 ft 132 kts 218°
2026-05-08 01:08 62.08931 129.76833 306 ft 190 kts 218°
2026-05-08 01:08 62.07794 129.75035 809 ft 211 kts 220°
2026-05-08 01:09 62.06630 129.72882 1532 ft 235 kts 233°
2026-05-08 01:09 62.05955 129.69663 2378 ft 256 kts 264°
2026-05-08 01:09 62.06100 129.65788 3235 ft 280 kts 284°
2026-05-08 01:09 62.06517 129.61517 4060 ft 309 kts 276°
2026-05-08 01:10 62.06287 129.56816 4938 ft 336 kts 258°
2026-05-08 01:10 62.05674 129.52048 6240 ft 345 kts 256°
2026-05-08 01:10 62.04979 129.47131 7602 ft 352 kts 256°
2026-05-08 01:10 62.04263 129.42184 8926 ft 358 kts 256°
2026-05-08 01:11 62.03529 129.37151 10211 ft 362 kts 256°
2026-05-08 01:11 62.02785 129.32068 11497 ft 364 kts 256°
2026-05-08 01:11 62.02042 129.27011 12827 ft 362 kts 256°
2026-05-08 01:11 62.01295 129.21938 14147 ft 359 kts 257°
2026-05-08 01:12 62.00559 129.16962 15436 ft 354 kts 257°
2026-05-08 01:12 61.99837 129.12096 16709 ft 348 kts 258°
2026-05-08 01:12 61.99127 129.07321 17998 ft 339 kts 259°
2026-05-08 01:12 61.98437 129.02689 19294 ft 327 kts 259°
2026-05-08 01:13 61.97772 128.98257 20588 ft 313 kts 261°
2026-05-08 01:13 61.97122 128.93890 21412 ft 312 kts 262°
2026-05-08 01:13 61.96465 128.89506 22033 ft 315 kts 262°
2026-05-08 01:13 61.95799 128.85077 22706 ft 317 kts 263°
2026-05-08 01:14 61.95124 128.80583 23150 ft 325 kts 263°
2026-05-08 01:14 61.94432 128.76015 23546 ft 333 kts 263°
2026-05-08 01:14 61.93712 128.71260 23980 ft 341 kts 263°
2026-05-08 01:14 61.92977 128.66425 24411 ft 348 kts 263°
2026-05-08 01:15 61.92390 128.62569 24728 ft 354 kts 263°
2026-05-08 01:15 61.91621 128.57542 25130 ft 360 kts 263°
2026-05-08 01:15 61.90844 128.52473 25536 ft 367 kts 263°
2026-05-08 01:15 61.90052 128.47322 25932 ft 372 kts 263°
2026-05-08 01:16 61.89242 128.42073 26307 ft 378 kts 263°
2026-05-08 01:16 61.88425 128.36804 26672 ft 383 kts 263°
2026-05-08 01:16 61.87585 128.31390 27039 ft 388 kts 262°
2026-05-08 01:16 61.86738 128.25949 27420 ft 391 kts 263°
2026-05-08 01:17 61.85890 128.20512 27758 ft 396 kts 262°
2026-05-08 01:17 61.85003 128.14831 27877 ft 407 kts 262°
2026-05-08 01:17 61.84093 128.09038 27998 ft 417 kts 262°
2026-05-08 01:17 61.83171 128.03194 28160 ft 425 kts 262°
2026-05-08 01:18 61.82217 127.97176 28430 ft 431 kts 262°
2026-05-08 01:18 61.81255 127.91110 28702 ft 436 kts 262°
2026-05-08 01:18 61.80279 127.84983 28960 ft 441 kts 262°
2026-05-08 01:18 61.79298 127.78848 29209 ft 445 kts 262°
2026-05-08 01:19 61.78302 127.72634 29460 ft 449 kts 262°
2026-05-08 01:19 61.77296 127.66374 29595 ft 455 kts 262°
2026-05-08 01:19 61.76264 127.59994 29706 ft 460 kts 262°
2026-05-08 01:19 61.75209 127.53481 29828 ft 464 kts 262°
2026-05-08 01:20 61.74169 127.47096 29945 ft 468 kts 262°
2026-05-08 01:20 61.73084 127.40446 30067 ft 471 kts 262°
2026-05-08 01:20 61.72012 127.33902 30185 ft 473 kts 261°
2026-05-08 01:20 61.70933 127.27348 30312 ft 475 kts 261°
2026-05-08 01:21 61.69835 127.20684 30438 ft 477 kts 261°
2026-05-08 01:21 61.68752 127.14153 30609 ft 477 kts 261°
2026-05-08 01:21 61.67654 127.07550 30896 ft 474 kts 261°
2026-05-08 01:21 61.66587 127.01073 31154 ft 472 kts 261°
2026-05-08 01:22 61.65507 126.94498 31358 ft 470 kts 261°
2026-05-08 01:22 61.64442 126.88053 31617 ft 467 kts 261°
2026-05-08 01:22 61.63393 126.81717 31950 ft 462 kts 261°
2026-05-08 01:22 61.62333 126.75335 32256 ft 458 kts 260°
2026-05-08 01:23 61.61284 126.69054 32537 ft 455 kts 260°
2026-05-08 01:23 61.60249 126.62865 32829 ft 453 kts 259°
2026-05-08 01:23 61.59209 126.56681 33111 ft 450 kts 259°
2026-05-08 01:23 61.58176 126.50551 33409 ft 447 kts 259°
2026-05-08 01:24 61.57146 126.44463 33690 ft 444 kts 259°
2026-05-08 01:24 61.56113 126.38365 33982 ft 440 kts 258°
2026-05-08 01:24 61.55098 126.32417 34262 ft 437 kts 257°
2026-05-08 01:24 61.54066 126.26369 34561 ft 434 kts 257°
2026-05-08 01:25 61.53049 126.20429 34738 ft 435 kts 257°
2026-05-08 01:25 61.50976 126.08388 34748 ft 446 kts 257°
2026-05-08 01:26 61.48840 125.96072 34751 ft 456 kts 257°
2026-05-08 01:26 61.46648 125.83497 34753 ft 463 kts 257°
2026-05-08 01:27 61.44417 125.70801 34774 ft 469 kts 257°
2026-05-08 01:27 61.42143 125.57940 34779 ft 473 kts 257°
2026-05-08 01:28 61.39855 125.45083 34764 ft 476 kts 257°
2026-05-08 01:28 61.37550 125.32227 34771 ft 478 kts 256°
2026-05-08 01:29 61.35213 125.19274 34781 ft 480 kts 256°
2026-05-08 01:29 61.32862 125.06330 34749 ft 481 kts 256°
2026-05-08 01:30 61.30477 124.93287 34750 ft 483 kts 256°
2026-05-08 01:30 61.28075 124.80244 34755 ft 482 kts 256°
2026-05-08 01:31 61.25671 124.67273 34749 ft 482 kts 256°
2026-05-08 01:31 61.23261 124.54354 34756 ft 480 kts 256°
2026-05-08 01:32 61.20838 124.41451 34752 ft 482 kts 256°
2026-05-08 01:32 61.18368 124.28387 34756 ft 483 kts 255°
2026-05-08 01:33 61.15880 124.15320 34755 ft 484 kts 255°
2026-05-08 01:33 61.13393 124.02332 34757 ft 484 kts 255°
2026-05-08 01:34 61.10911 123.89472 34760 ft 482 kts 255°
2026-05-08 01:34 61.08410 123.76585 34760 ft 483 kts 255°
2026-05-08 01:35 61.05929 123.63784 34763 ft 483 kts 256°
2026-05-08 01:35 61.03435 123.50845 34768 ft 483 kts 256°
2026-05-08 01:36 61.00959 123.38086 34764 ft 483 kts 256°
2026-05-08 01:36 60.98452 123.25245 34750 ft 484 kts 255°
2026-05-08 01:37 60.95921 123.12366 34754 ft 484 kts 255°
2026-05-08 01:37 60.93389 122.99563 34748 ft 484 kts 255°
2026-05-08 01:38 60.90825 122.86680 34756 ft 485 kts 255°
2026-05-08 01:38 60.88264 122.73902 34746 ft 484 kts 255°
2026-05-08 01:39 60.85695 122.61157 34771 ft 484 kts 255°
2026-05-08 01:39 60.83109 122.48405 34747 ft 485 kts 255°
2026-05-08 01:40 60.80523 122.35744 34781 ft 484 kts 255°
2026-05-08 01:40 60.77914 122.23046 34762 ft 484 kts 253°
2026-05-08 01:41 60.75294 122.10367 34789 ft 485 kts 253°
2026-05-08 01:41 60.72659 121.97699 34762 ft 486 kts 253°
2026-05-08 01:42 60.70015 121.85060 34770 ft 486 kts 253°
2026-05-08 01:42 60.67350 121.72404 34783 ft 486 kts 253°
2026-05-08 01:43 60.64665 121.59727 34771 ft 486 kts 253°
2026-05-08 01:43 60.61993 121.47196 34803 ft 484 kts 253°
2026-05-08 01:44 60.59313 121.34701 34780 ft 485 kts 252°
2026-05-08 01:44 60.56509 121.22253 34786 ft 488 kts 251°
2026-05-08 01:45 60.53610 121.09734 34794 ft 487 kts 250°
2026-05-08 01:45 60.50739 120.97411 34780 ft 487 kts 250°
2026-05-08 01:46 60.47829 120.84987 34810 ft 488 kts 250°
2026-05-08 01:46 60.44909 120.72593 34795 ft 487 kts 250°
2026-05-08 01:47 60.41990 120.60274 34798 ft 486 kts 250°
2026-05-08 01:47 60.39055 120.48068 34795 ft 489 kts 247°
2026-05-08 01:48 60.33171 120.31053 34772 ft 497 kts 239°
2026-05-08 01:48 60.29159 120.19749 34821 ft 497 kts 239°
2026-05-08 01:49 60.25135 120.08466 34836 ft 497 kts 239°
2026-05-08 01:49 60.21097 119.97202 34793 ft 497 kts 239°
2026-05-08 01:50 60.17090 119.86075 34819 ft 496 kts 239°
2026-05-08 01:50 60.13052 119.74922 34859 ft 494 kts 239°
2026-05-08 01:51 60.09002 119.63781 34812 ft 493 kts 239°
2026-05-08 01:51 60.04964 119.52722 34795 ft 495 kts 239°
2026-05-08 01:52 60.00922 119.41710 34853 ft 495 kts 239°
2026-05-08 01:52 59.96845 119.30657 34865 ft 494 kts 238°
2026-05-08 01:53 59.92796 119.19728 34825 ft 492 kts 238°
2026-05-08 01:53 59.88713 119.08760 34829 ft 493 kts 238°
2026-05-08 01:54 59.84662 118.97931 34873 ft 491 kts 238°
2026-05-08 01:54 59.80581 118.87068 34840 ft 490 kts 238°
2026-05-08 01:55 59.76508 118.76273 34793 ft 492 kts 237°
2026-05-08 01:55 59.72427 118.65516 34843 ft 492 kts 237°
2026-05-08 01:56 59.68310 118.54712 34865 ft 490 kts 237°
2026-05-08 01:56 59.64193 118.43950 34811 ft 491 kts 237°
2026-05-08 01:57 59.60077 118.33245 34827 ft 492 kts 236°
2026-05-08 01:57 59.55953 118.22570 34868 ft 490 kts 236°
2026-05-08 01:58 59.51834 118.11955 34847 ft 490 kts 236°
2026-05-08 01:58 59.47691 118.01324 34810 ft 492 kts 236°
2026-05-08 01:59 59.43549 117.90748 34853 ft 490 kts 236°
2026-05-08 01:59 59.39393 117.80180 34871 ft 488 kts 236°
2026-05-08 02:00 59.35243 117.69673 34822 ft 489 kts 236°
2026-05-08 02:00 59.31088 117.59203 34847 ft 490 kts 236°
2026-05-08 02:01 59.26942 117.48804 34883 ft 489 kts 236°
2026-05-08 02:01 59.22749 117.38330 34856 ft 488 kts 236°
2026-05-08 02:02 59.18556 117.27905 34835 ft 490 kts 235°
2026-05-08 02:02 59.14365 117.17531 34873 ft 489 kts 235°
2026-05-08 02:03 59.10146 117.07134 34874 ft 488 kts 234°
2026-05-08 02:03 59.05927 116.96786 34860 ft 488 kts 234°
2026-05-08 02:04 59.01721 116.86531 34901 ft 487 kts 235°
2026-05-08 02:04 58.97489 116.76257 34892 ft 486 kts 234°
2026-05-08 02:05 58.93264 116.66045 34854 ft 487 kts 234°
2026-05-08 02:05 58.89053 116.55913 34881 ft 488 kts 234°
2026-05-08 02:06 58.84809 116.45744 34893 ft 486 kts 234°
2026-05-08 02:06 58.80578 116.35648 34847 ft 486 kts 234°
2026-05-08 02:07 58.76326 116.25545 34886 ft 487 kts 233°
2026-05-08 02:07 58.72085 116.15517 34914 ft 485 kts 233°
2026-05-08 02:08 58.67837 116.05501 34880 ft 485 kts 233°
2026-05-08 02:08 58.63575 115.95485 34904 ft 485 kts 233°
2026-05-08 02:09 58.59316 115.85519 34932 ft 483 kts 233°
2026-05-08 02:09 58.55040 115.75555 34894 ft 483 kts 233°
2026-05-08 02:10 58.50766 115.65636 34883 ft 485 kts 233°
2026-05-08 02:10 58.46497 115.55774 34922 ft 483 kts 233°
2026-05-08 02:11 58.42208 115.45905 34901 ft 482 kts 233°
2026-05-08 02:11 58.37939 115.36124 34886 ft 484 kts 233°
2026-05-08 02:12 58.33655 115.26351 34929 ft 483 kts 232°
2026-05-08 02:12 58.29352 115.16572 34930 ft 482 kts 232°
2026-05-08 02:13 58.25037 115.06808 34897 ft 483 kts 232°
2026-05-08 02:13 58.20760 114.97169 34921 ft 483 kts 232°
2026-05-08 02:14 58.16459 114.87519 34936 ft 481 kts 232°
2026-05-08 02:14 58.12128 114.77830 34896 ft 482 kts 232°
2026-05-08 02:15 58.07840 114.68276 34919 ft 481 kts 232°
2026-05-08 02:15 58.03536 114.58720 34931 ft 479 kts 232°
2026-05-08 02:16 57.99214 114.49169 34901 ft 480 kts 232°
2026-05-08 02:16 57.94881 114.39632 34928 ft 481 kts 232°
2026-05-08 02:17 57.90556 114.30151 34944 ft 480 kts 231°
2026-05-08 02:17 57.86266 114.20559 34913 ft 479 kts 235°
2026-05-08 02:18 57.82264 114.10678 34943 ft 479 kts 234°
2026-05-08 02:18 57.78224 114.00819 34937 ft 477 kts 234°
2026-05-08 02:19 57.74190 113.91019 34909 ft 478 kts 234°
2026-05-08 02:19 57.70149 113.81248 34942 ft 478 kts 234°
2026-05-08 02:20 57.66094 113.71478 34948 ft 478 kts 234°
2026-05-08 02:20 57.62012 113.61684 34905 ft 479 kts 234°
2026-05-08 02:21 57.57936 113.51941 34937 ft 478 kts 234°
2026-05-08 02:21 57.53874 113.42261 34941 ft 476 kts 234°
2026-05-08 02:22 57.49791 113.32574 34904 ft 478 kts 233°
2026-05-08 02:22 57.45694 113.22890 34929 ft 479 kts 233°
2026-05-08 02:23 57.43151 113.16903 34901 ft 478 kts 233°
2026-05-08 02:23 57.39067 113.07313 34960 ft 472 kts 233°
2026-05-08 02:24 57.35019 112.97846 34898 ft 470 kts 233°
2026-05-08 02:24 57.30983 112.88443 34901 ft 469 kts 233°
2026-05-08 02:25 57.26952 112.79089 34957 ft 466 kts 233°
2026-05-08 02:25 57.22924 112.69765 34939 ft 465 kts 233°
2026-05-08 02:26 57.18899 112.60487 34899 ft 465 kts 233°
2026-05-08 02:26 57.14885 112.51270 34914 ft 464 kts 233°
2026-05-08 02:27 57.10847 112.42036 34957 ft 462 kts 233°
2026-05-08 02:27 57.06818 112.32856 34925 ft 463 kts 232°
2026-05-08 02:28 57.02791 112.23713 34915 ft 463 kts 232°
2026-05-08 02:28 56.98741 112.14555 34962 ft 462 kts 232°
2026-05-08 02:29 56.94688 112.05427 34957 ft 462 kts 232°
2026-05-08 02:29 56.90634 111.96330 34921 ft 463 kts 232°
2026-05-08 02:30 56.86571 111.87245 34937 ft 463 kts 232°
2026-05-08 02:30 56.82525 111.78236 34954 ft 462 kts 232°
2026-05-08 02:31 56.78453 111.69201 34929 ft 463 kts 232°
2026-05-08 02:31 56.74345 111.60231 34927 ft 463 kts 231°
2026-05-08 02:32 56.70166 111.51306 34945 ft 462 kts 231°
2026-05-08 02:32 56.65979 111.42394 34921 ft 463 kts 231°
2026-05-08 02:33 56.61833 111.33604 34925 ft 463 kts 230°
2026-05-08 02:33 56.57601 111.24664 34965 ft 462 kts 231°
2026-05-08 02:34 56.53415 111.15852 34932 ft 463 kts 231°
2026-05-08 02:34 56.49204 111.07022 34936 ft 463 kts 231°
2026-05-08 02:35 56.44976 110.98189 34962 ft 462 kts 231°
2026-05-08 02:35 56.40770 110.89436 34930 ft 463 kts 231°
2026-05-08 02:36 56.36546 110.80675 34933 ft 464 kts 231°
2026-05-08 02:36 56.32339 110.71985 34969 ft 463 kts 231°
2026-05-08 02:37 56.28103 110.63264 34937 ft 464 kts 231°
2026-05-08 02:37 56.23870 110.54578 34934 ft 464 kts 231°
2026-05-08 02:38 56.19633 110.45923 34963 ft 463 kts 231°
2026-05-08 02:38 56.15366 110.37232 34956 ft 463 kts 231°
2026-05-08 02:39 56.11082 110.28545 34964 ft 463 kts 230°
2026-05-08 02:39 56.06839 110.19969 34982 ft 463 kts 230°
2026-05-08 02:40 56.02564 110.11362 34969 ft 463 kts 230°
2026-05-08 02:40 55.98296 110.02798 34980 ft 463 kts 230°
2026-05-08 02:41 55.94004 109.94218 34968 ft 462 kts 230°
2026-05-08 02:41 55.89719 109.85680 34968 ft 462 kts 230°
2026-05-08 02:42 55.85450 109.77206 34983 ft 461 kts 230°
2026-05-08 02:42 55.81166 109.68736 34978 ft 461 kts 230°
2026-05-08 02:43 55.76900 109.60329 35014 ft 459 kts 230°
2026-05-08 02:43 55.72480 109.52251 35001 ft 460 kts 226°
2026-05-08 02:44 55.67878 109.44385 34985 ft 461 kts 226°
2026-05-08 02:44 55.63285 109.36544 35023 ft 460 kts 226°
2026-05-08 02:45 55.58705 109.28747 34999 ft 460 kts 225°
2026-05-08 02:45 55.54088 109.20915 35010 ft 460 kts 225°
2026-05-08 02:46 55.49483 109.13129 35027 ft 459 kts 225°
2026-05-08 02:46 55.44844 109.05315 34999 ft 461 kts 225°
2026-05-08 02:47 55.40239 108.97582 34997 ft 461 kts 225°
2026-05-08 02:47 55.35596 108.89812 35001 ft 461 kts 225°
2026-05-08 02:48 55.30969 108.82098 34973 ft 461 kts 225°
2026-05-08 02:48 55.26323 108.74381 34985 ft 461 kts 225°
2026-05-08 02:49 55.21677 108.66692 34978 ft 461 kts 225°
2026-05-08 02:49 55.17034 108.59029 34966 ft 460 kts 225°
2026-05-08 02:50 55.12373 108.51365 34982 ft 460 kts 225°
2026-05-08 02:50 55.07722 108.43742 34964 ft 460 kts 225°
2026-05-08 02:51 55.03092 108.36177 34991 ft 459 kts 225°
2026-05-08 02:51 54.98431 108.28589 34979 ft 459 kts 224°
2026-05-08 02:52 54.93798 108.21072 34985 ft 459 kts 224°
2026-05-08 02:52 54.89114 108.13498 34999 ft 459 kts 224°
2026-05-08 02:53 54.84443 108.05967 34966 ft 460 kts 224°
2026-05-08 02:53 54.79738 107.98409 34984 ft 459 kts 224°
2026-05-08 02:54 54.75081 107.90951 34991 ft 458 kts 224°
2026-05-08 02:54 54.70387 107.83459 34957 ft 459 kts 224°
2026-05-08 02:55 54.63392 107.72339 34953 ft 459 kts 224°
2026-05-08 02:56 54.58724 107.64945 34981 ft 458 kts 224°
2026-05-08 02:56 54.54014 107.57507 34982 ft 458 kts 224°
2026-05-08 02:57 54.49344 107.50158 34953 ft 460 kts 224°
2026-05-08 02:57 54.44602 107.42719 34970 ft 459 kts 224°
2026-05-08 02:58 54.39912 107.35385 34966 ft 459 kts 224°
2026-05-08 02:58 54.35193 107.28028 34955 ft 459 kts 223°
2026-05-08 02:59 54.30477 107.20702 34994 ft 459 kts 223°
2026-05-08 02:59 54.25720 107.13336 34971 ft 460 kts 223°
2026-05-08 03:00 54.20992 107.06038 34946 ft 460 kts 223°
2026-05-08 03:00 54.16277 106.98786 34986 ft 460 kts 223°
2026-05-08 03:01 54.11525 106.91502 34998 ft 461 kts 223°
2026-05-08 03:01 54.06770 106.84234 34960 ft 462 kts 223°
2026-05-08 03:02 54.01981 106.76942 34979 ft 462 kts 223°
2026-05-08 03:02 53.97219 106.69711 35009 ft 462 kts 223°
2026-05-08 03:03 53.92421 106.62450 34973 ft 463 kts 223°
2026-05-08 03:03 53.87618 106.55204 34971 ft 464 kts 223°
2026-05-08 03:04 53.82804 106.47965 35016 ft 463 kts 223°
2026-05-08 03:04 53.78016 106.40788 34991 ft 463 kts 224°
2026-05-08 03:05 53.73185 106.33570 34969 ft 464 kts 223°
2026-05-08 03:05 53.68387 106.26422 35016 ft 463 kts 223°
2026-05-08 03:06 53.63565 106.19264 34994 ft 463 kts 223°
2026-05-08 03:06 53.58738 106.12120 34980 ft 464 kts 223°
2026-05-08 03:07 53.53875 106.04945 35002 ft 463 kts 223°
2026-05-08 03:07 53.49025 105.97813 35005 ft 463 kts 223°
2026-05-08 03:08 53.44193 105.90730 34982 ft 464 kts 223°
2026-05-08 03:08 53.39363 105.83672 35014 ft 463 kts 223°
2026-05-08 03:09 53.34500 105.76585 35008 ft 463 kts 223°
2026-05-08 03:09 53.29657 105.69554 34984 ft 464 kts 223°
2026-05-08 03:10 53.24789 105.62490 35013 ft 463 kts 225°
2026-05-08 03:10 53.22727 105.58373 34959 ft 460 kts 241°
2026-05-08 03:10 53.21495 105.53517 35054 ft 453 kts 257°
2026-05-08 03:10 53.21141 105.48330 35016 ft 452 kts 274°
2026-05-08 03:11 53.21699 105.43221 34995 ft 451 kts 290°
2026-05-08 03:11 53.23127 105.38612 35049 ft 449 kts 307°
2026-05-08 03:11 53.25293 105.34869 35002 ft 451 kts 322°
2026-05-08 03:11 53.28030 105.32332 35008 ft 452 kts 339°
2026-05-08 03:12 53.31064 105.31228 35039 ft 454 kts 355°
2026-05-08 03:12 53.34219 105.31611 34995 ft 459 kts 12°
2026-05-08 03:12 53.37196 105.33514 35023 ft 461 kts 28°
2026-05-08 03:12 53.39761 105.36698 35044 ft 463 kts 39°
2026-05-08 03:13 53.42210 105.40242 34984 ft 466 kts 38°
2026-05-08 03:13 53.47225 105.47154 35007 ft 467 kts 37°
2026-05-08 03:14 53.52195 105.54079 34969 ft 471 kts 43°
2026-05-08 03:14 53.54197 105.58437 35008 ft 472 kts 60°
2026-05-08 03:14 53.55400 105.63579 35011 ft 473 kts 76°
2026-05-08 03:14 53.55708 105.69053 34999 ft 475 kts 94°
2026-05-08 03:15 53.55099 105.74442 35029 ft 474 kts 110°
2026-05-08 03:15 53.53620 105.79373 35019 ft 473 kts 127°
2026-05-08 03:15 53.51399 105.83388 35014 ft 471 kts 143°
2026-05-08 03:15 53.48583 105.86204 35037 ft 467 kts 160°
2026-05-08 03:16 53.45459 105.87556 35030 ft 463 kts 176°
2026-05-08 03:16 53.42297 105.87384 35015 ft 459 kts 193°
2026-05-08 03:16 53.39263 105.85682 35045 ft 454 kts 210°
2026-05-08 03:16 53.36733 105.82704 35031 ft 451 kts 226°
2026-05-08 03:17 53.34758 105.78641 35025 ft 448 kts 235°
2026-05-08 03:17 53.30479 105.71101 34998 ft 453 kts 224°
2026-05-08 03:18 53.25792 105.64012 34996 ft 456 kts 223°
2026-05-08 03:18 53.21791 105.55981 34972 ft 452 kts 248°
2026-05-08 03:18 53.20945 105.51015 35024 ft 448 kts 264°
2026-05-08 03:19 53.20991 105.45822 34970 ft 448 kts 281°
2026-05-08 03:19 53.21946 105.40934 34999 ft 446 kts 298°
2026-05-08 03:19 53.23723 105.36706 35006 ft 446 kts 314°
2026-05-08 03:19 53.26135 105.33547 34971 ft 448 kts 330°
2026-05-08 03:20 53.29026 105.31683 35008 ft 449 kts 347°
2026-05-08 03:20 53.32168 105.31286 34991 ft 453 kts
2026-05-08 03:20 53.35202 105.32404 34977 ft 456 kts 20°
2026-05-08 03:20 53.37992 105.35012 35014 ft 459 kts 37°
2026-05-08 03:21 53.40413 105.38480 35001 ft 461 kts 39°
2026-05-08 03:21 53.45359 105.45367 34986 ft 464 kts 37°
2026-05-08 03:22 53.50320 105.52190 34944 ft 467 kts 37°
2026-05-08 03:22 53.52655 105.55998 34969 ft 469 kts 51°
2026-05-08 03:22 53.54273 105.60683 35007 ft 470 kts 68°
2026-05-08 03:22 53.55065 105.65990 34992 ft 472 kts 84°
2026-05-08 03:23 53.54942 105.71506 35004 ft 473 kts 101°
2026-05-08 03:23 53.53908 105.76730 35019 ft 472 kts 118°
2026-05-08 03:23 53.52060 105.81250 35009 ft 471 kts 134°
2026-05-08 03:23 53.49540 105.84712 35024 ft 469 kts 151°
2026-05-08 03:24 53.46565 105.86838 35025 ft 466 kts 168°
2026-05-08 03:24 53.43422 105.87476 35014 ft 462 kts 184°
2026-05-08 03:24 53.40267 105.86591 35027 ft 458 kts 200°
2026-05-08 03:24 53.37397 105.84232 35026 ft 455 kts 217°
2026-05-08 03:25 53.35110 105.80676 35010 ft 451 kts 234°
2026-05-08 03:25 53.31234 105.72444 35014 ft 453 kts 226°
2026-05-08 03:26 53.26611 105.65253 34991 ft 457 kts 223°
2026-05-08 03:26 53.22276 105.57591 34966 ft 454 kts 242°
2026-05-08 03:26 53.21115 105.52705 35033 ft 449 kts 259°
2026-05-08 03:27 53.20849 105.47567 35009 ft 449 kts 275°
2026-05-08 03:27 53.21496 105.42497 34989 ft 448 kts 292°
2026-05-08 03:27 53.22984 105.38035 35038 ft 447 kts 308°
2026-05-08 03:27 53.25211 105.34422 34996 ft 449 kts 324°
2026-05-08 03:28 53.27976 105.32054 35002 ft 450 kts 341°
2026-05-08 03:28 53.31051 105.31126 35027 ft 452 kts 358°
2026-05-08 03:28 53.34179 105.31714 34982 ft 456 kts 14°
2026-05-08 03:28 53.37073 105.33793 35020 ft 458 kts 31°
2026-05-08 03:29 53.39584 105.37094 35032 ft 461 kts 40°
2026-05-08 03:29 53.44484 105.44021 34980 ft 464 kts 38°
2026-05-08 03:30 53.51937 105.54459 34969 ft 469 kts 45°
2026-05-08 03:30 53.54945 105.63957 35002 ft 472 kts 78°
2026-05-08 03:31 53.54464 105.74847 35012 ft 473 kts 111°
2026-05-08 03:31 53.50605 105.83587 35014 ft 470 kts 145°
2026-05-08 03:32 53.47776 105.86234 35020 ft 468 kts 161°
2026-05-08 03:32 53.44647 105.87442 35019 ft 464 kts 178°
2026-05-08 03:32 53.41447 105.87123 35022 ft 460 kts 194°
2026-05-08 03:32 53.38452 105.85307 35024 ft 457 kts 211°
2026-05-08 03:33 53.35930 105.82182 35018 ft 453 kts 227°
2026-05-08 03:33 53.34037 105.78015 35034 ft 450 kts 239°
2026-05-08 03:33 53.32095 105.73888 35000 ft 453 kts 227°
2026-05-08 03:34 53.27513 105.66612 35002 ft 457 kts 224°
2026-05-08 03:34 53.22950 105.59278 34980 ft 456 kts 236°
2026-05-08 03:34 53.21468 105.54679 35022 ft 452 kts 252°
2026-05-08 03:35 53.20840 105.49552 35008 ft 450 kts 269°
2026-05-08 03:35 53.21126 105.44442 35003 ft 449 kts 285°
2026-05-08 03:35 53.22292 105.39675 35023 ft 448 kts 302°
2026-05-08 03:35 53.24252 105.35643 35001 ft 449 kts 319°
2026-05-08 03:36 53.26817 105.32749 34996 ft 450 kts 334°
2026-05-08 03:36 53.29794 105.31215 35028 ft 452 kts 351°
2026-05-08 03:36 53.32921 105.31162 34991 ft 455 kts
2026-05-08 03:36 53.35951 105.32632 35004 ft 458 kts 24°
2026-05-08 03:37 53.38632 105.35512 35035 ft 461 kts 39°
2026-05-08 03:37 53.43556 105.42539 34959 ft 465 kts 38°
2026-05-08 03:38 53.48525 105.49387 34967 ft 468 kts 38°
2026-05-08 03:38 53.53247 105.56893 34961 ft 471 kts 55°
2026-05-08 03:38 53.54686 105.61758 35018 ft 472 kts 71°
2026-05-08 03:39 53.55286 105.67234 34989 ft 474 kts 88°
2026-05-08 03:39 53.54955 105.72718 34980 ft 475 kts 105°
2026-05-08 03:39 53.53728 105.77830 35009 ft 473 kts 121°
2026-05-08 03:39 53.51722 105.82152 35001 ft 473 kts 138°
2026-05-08 03:40 53.49092 105.85362 34988 ft 470 kts 154°
2026-05-08 03:40 53.46033 105.87207 35008 ft 467 kts 171°
2026-05-08 03:40 53.42817 105.87537 35008 ft 463 kts 187°
2026-05-08 03:40 53.39723 105.86359 34991 ft 460 kts 204°
2026-05-08 03:41 53.36946 105.83740 35014 ft 455 kts 220°
2026-05-08 03:41 53.34768 105.79964 35007 ft 453 kts 237°
2026-05-08 03:41 53.33020 105.75647 34997 ft 453 kts 231°
2026-05-08 03:42 53.28515 105.68140 34989 ft 457 kts 224°
2026-05-08 03:42 53.23823 105.61001 34979 ft 458 kts 229°
2026-05-08 03:42 53.21984 105.56687 34976 ft 455 kts 245°
2026-05-08 03:43 53.20987 105.51733 35012 ft 451 kts 262°
2026-05-08 03:43 53.20888 105.46530 35006 ft 450 kts 278°
2026-05-08 03:43 53.21701 105.41507 34986 ft 449 kts 295°
2026-05-08 03:43 53.23346 105.37136 35017 ft 449 kts 311°
2026-05-08 03:44 53.25676 105.33739 35000 ft 450 kts 327°
2026-05-08 03:44 53.28541 105.31584 35001 ft 452 kts 344°
2026-05-08 03:44 53.31654 105.30911 35007 ft 455 kts
2026-05-08 03:44 53.34741 105.31746 34988 ft 458 kts 17°
2026-05-08 03:45 53.37590 105.34046 35008 ft 461 kts 33°
2026-05-08 03:45 53.42548 105.40984 34949 ft 466 kts 38°
2026-05-08 03:46 53.47538 105.47845 34986 ft 468 kts 37°
2026-05-08 03:46 53.52472 105.54956 34954 ft 471 kts 47°
2026-05-08 03:46 53.54285 105.59570 35004 ft 472 kts 64°
2026-05-08 03:47 53.55261 105.64812 34980 ft 474 kts 80°
2026-05-08 03:47 53.55335 105.70297 34984 ft 475 kts 98°
2026-05-08 03:47 53.54503 105.75605 35013 ft 474 kts 114°
2026-05-08 03:47 53.52818 105.80369 34987 ft 474 kts 130°
2026-05-08 03:48 53.50453 105.84092 34991 ft 471 kts 147°
2026-05-08 03:48 53.47534 105.86584 35014 ft 468 kts 163°
2026-05-08 03:48 53.44370 105.87596 34991 ft 465 kts 180°
2026-05-08 03:48 53.41155 105.87063 34998 ft 461 kts 197°
2026-05-08 03:49 53.38237 105.85072 35024 ft 457 kts 213°
2026-05-08 03:49 53.35753 105.81744 34989 ft 454 kts 230°
2026-05-08 03:49 53.33933 105.77538 35010 ft 451 kts 237°
2026-05-08 03:49 53.31912 105.73528 35007 ft 454 kts 226°
2026-05-08 03:50 53.29633 105.69851 34980 ft 457 kts 224°
2026-05-08 03:50 53.24923 105.62728 34985 ft 459 kts 223°
2026-05-08 03:50 53.22762 105.58855 34946 ft 457 kts 238°
2026-05-08 03:51 53.21358 105.54177 35000 ft 453 kts 254°
2026-05-08 03:51 53.20818 105.49042 35013 ft 451 kts 270°
2026-05-08 03:51 53.21185 105.43886 34969 ft 450 kts 287°
2026-05-08 03:51 53.22455 105.39107 35015 ft 449 kts 304°
2026-05-08 03:52 53.24475 105.35187 34989 ft 450 kts 320°
2026-05-08 03:52 53.27114 105.32385 34981 ft 452 kts 336°
2026-05-08 03:52 53.30137 105.30981 35017 ft 453 kts 352°
2026-05-08 03:52 53.33296 105.31079 34972 ft 457 kts
2026-05-08 03:53 53.36313 105.32700 34990 ft 460 kts 25°
2026-05-08 03:53 53.38928 105.35648 35024 ft 463 kts 39°
2026-05-08 03:53 53.41375 105.39195 34967 ft 466 kts 38°
2026-05-08 03:54 53.46397 105.46147 34989 ft 467 kts 38°
2026-05-08 03:54 53.51431 105.53120 34948 ft 471 kts 40°
2026-05-08 03:54 53.53575 105.57267 34980 ft 472 kts 57°
2026-05-08 03:55 53.54947 105.62250 34996 ft 473 kts 73°
2026-05-08 03:55 53.55447 105.67662 34984 ft 475 kts 90°
2026-05-08 03:55 53.55034 105.73129 35000 ft 475 kts 106°
2026-05-08 03:55 53.53726 105.78219 35012 ft 474 kts 123°
2026-05-08 03:56 53.51659 105.82452 34996 ft 473 kts 139°
2026-05-08 03:56 53.48972 105.85553 35006 ft 470 kts 156°
2026-05-08 03:56 53.45888 105.87262 35020 ft 466 kts 172°
2026-05-08 03:56 53.42672 105.87456 35002 ft 463 kts 189°
2026-05-08 03:57 53.39611 105.86147 35008 ft 459 kts 205°
2026-05-08 03:57 53.36876 105.83415 35026 ft 455 kts 221°
2026-05-08 03:57 53.34759 105.79560 35003 ft 453 kts 238°
2026-05-08 03:58 53.30709 105.71552 35002 ft 456 kts 225°
2026-05-08 03:58 53.26005 105.64340 34978 ft 460 kts 223°
2026-05-08 03:59 53.21880 105.56393 34975 ft 456 kts 246°
2026-05-08 03:59 53.20922 105.51381 35026 ft 452 kts 263°
2026-05-08 03:59 53.20863 105.46184 35000 ft 451 kts 279°
2026-05-08 03:59 53.21709 105.41192 34991 ft 450 kts 296°
2026-05-08 04:00 53.23392 105.36824 35027 ft 450 kts 312°
2026-05-08 04:00 53.25766 105.33433 34994 ft 452 kts 328°
2026-05-08 04:00 53.28642 105.31332 35005 ft 453 kts 345°
2026-05-08 04:00 53.31780 105.30705 35013 ft 456 kts
2026-05-08 04:01 53.34872 105.31587 34983 ft 460 kts 17°
2026-05-08 04:01 53.37733 105.33949 35014 ft 462 kts 34°
2026-05-08 04:01 53.40216 105.37388 35019 ft 465 kts 39°
2026-05-08 04:02 53.45177 105.44344 34977 ft 468 kts 38°
2026-05-08 04:02 53.50224 105.51334 34935 ft 471 kts 38°
2026-05-08 04:02 53.52622 105.55019 34953 ft 472 kts 49°
2026-05-08 04:03 53.54405 105.59667 34994 ft 473 kts 65°
2026-05-08 04:03 53.55393 105.70455 34977 ft 476 kts 98°
2026-05-08 04:03 53.54522 105.75793 35002 ft 475 kts 115°
2026-05-08 04:04 53.52805 105.80538 34988 ft 475 kts 131°
2026-05-08 04:04 53.50404 105.84250 34982 ft 473 kts 147°
2026-05-08 04:04 53.47505 105.86684 35001 ft 470 kts 164°
2026-05-08 04:04 53.44320 105.87676 34996 ft 467 kts 180°
2026-05-08 04:05 53.41128 105.87139 34984 ft 463 kts 197°
2026-05-08 04:05 53.38144 105.85094 35004 ft 459 kts 213°
2026-05-08 04:05 53.35697 105.81803 35000 ft 455 kts 229°
2026-05-08 04:05 53.33842 105.77493 34991 ft 454 kts 238°
2026-05-08 04:06 53.31829 105.73428 34997 ft 456 kts 226°
2026-05-08 04:06 53.29542 105.69725 34986 ft 458 kts 224°
2026-05-08 04:06 53.24850 105.62622 34972 ft 461 kts 223°
2026-05-08 04:07 53.22693 105.58709 34962 ft 459 kts 238°
2026-05-08 04:07 53.21289 105.53969 34987 ft 455 kts 254°
2026-05-08 04:07 53.20767 105.48757 35015 ft 452 kts 271°
2026-05-08 04:07 53.21154 105.43623 34974 ft 452 kts 287°
2026-05-08 04:08 53.22422 105.38885 35005 ft 451 kts 304°
2026-05-08 04:08 53.24450 105.34959 35001 ft 452 kts 319°
2026-05-08 04:08 53.27111 105.32131 34981 ft 454 kts 336°
2026-05-08 04:08 53.30129 105.30720 35008 ft 456 kts 352°
2026-05-08 04:09 53.33262 105.30797 34995 ft 459 kts
2026-05-08 04:09 53.36313 105.32388 34983 ft 462 kts 25°
2026-05-08 04:09 53.39005 105.35394 35021 ft 464 kts 39°
2026-05-08 04:09 53.41428 105.38914 34982 ft 467 kts 38°
2026-05-08 04:10 53.46452 105.45911 34991 ft 469 kts 38°
2026-05-08 04:10 53.51477 105.52899 34941 ft 472 kts 40°
2026-05-08 04:11 53.53635 105.56992 34973 ft 473 kts 56°
2026-05-08 04:11 53.55044 105.61955 34999 ft 475 kts 72°
2026-05-08 04:11 53.55593 105.67409 34972 ft 477 kts 89°
2026-05-08 04:11 53.55220 105.72904 34991 ft 476 kts 105°
2026-05-08 04:12 53.53963 105.78011 35003 ft 476 kts 122°
2026-05-08 04:12 53.51889 105.82391 34977 ft 475 kts 139°
2026-05-08 04:12 53.49240 105.85543 34995 ft 472 kts 155°
2026-05-08 04:12 53.46141 105.87355 35002 ft 468 kts 171°
2026-05-08 04:13 53.42925 105.87640 34982 ft 466 kts 188°
2026-05-08 04:13 53.39815 105.86409 34998 ft 461 kts 204°
2026-05-08 04:13 53.37054 105.83775 35007 ft 458 kts 220°
2026-05-08 04:13 53.34871 105.79977 34978 ft 455 kts 237°
2026-05-08 04:14 53.30872 105.71823 34992 ft 458 kts 225°
2026-05-08 04:14 53.26144 105.64549 34964 ft 462 kts 223°
2026-05-08 04:15 53.21932 105.56589 34958 ft 458 kts 245°
2026-05-08 04:15 53.20935 105.51665 35018 ft 454 kts 262°
2026-05-08 04:15 53.20815 105.46434 34994 ft 453 kts 278°
2026-05-08 04:16 53.21601 105.41398 34983 ft 452 kts 295°
2026-05-08 04:16 53.23241 105.36944 35029 ft 451 kts 311°
2026-05-08 04:16 53.25588 105.33451 34987 ft 453 kts 327°
2026-05-08 04:16 53.28410 105.31267 35002 ft 454 kts 343°
2026-05-08 04:17 53.31548 105.30512 35013 ft 457 kts 359°
2026-05-08 04:17 53.34655 105.31266 34979 ft 461 kts 16°
2026-05-08 04:17 53.37555 105.33511 35015 ft 463 kts 32°
2026-05-08 04:17 53.40075 105.36925 35020 ft 465 kts 40°
2026-05-08 04:18 53.45029 105.43932 34978 ft 469 kts 38°
2026-05-08 04:18 53.50045 105.50867 34940 ft 472 kts 38°
2026-05-08 04:19 53.54363 105.59043 34993 ft 474 kts 63°
2026-05-08 04:19 53.55409 105.64252 34992 ft 476 kts 79°
2026-05-08 04:19 53.55558 105.69816 34993 ft 477 kts 96°
2026-05-08 04:20 53.54794 105.75190 34999 ft 476 kts 112°
2026-05-08 04:20 53.53177 105.80007 34998 ft 475 kts 129°
2026-05-08 04:20 53.50819 105.83896 35002 ft 473 kts 146°
2026-05-08 04:20 53.47956 105.86491 35002 ft 470 kts 162°
2026-05-08 04:21 53.44758 105.87648 35004 ft 467 kts 178°
2026-05-08 04:21 53.41544 105.87257 35009 ft 464 kts 194°
2026-05-08 04:21 53.38523 105.85362 35010 ft 461 kts 211°
2026-05-08 04:21 53.35976 105.82135 35009 ft 458 kts 228°
2026-05-08 04:22 53.32094 105.73842 34992 ft 458 kts 227°
2026-05-08 04:22 53.27465 105.66534 34987 ft 462 kts 224°
2026-05-08 04:23 53.22825 105.59012 34942 ft 461 kts 237°
2026-05-08 04:23 53.21370 105.54360 34974 ft 456 kts 253°
2026-05-08 04:23 53.20768 105.49155 34991 ft 453 kts 269°
2026-05-08 04:24 53.21084 105.43954 34953 ft 452 kts 286°
2026-05-08 04:24 53.22281 105.39182 34995 ft 451 kts 302°
2026-05-08 04:24 53.24247 105.35177 34986 ft 452 kts 319°
2026-05-08 04:24 53.26863 105.32240 34961 ft 454 kts 334°
2026-05-08 04:25 53.29886 105.30703 35004 ft 455 kts 351°
2026-05-08 04:25 53.33007 105.30660 34973 ft 458 kts
2026-05-08 04:25 53.36084 105.32145 34967 ft 462 kts 24°
2026-05-08 04:25 53.38784 105.35036 35009 ft 464 kts 38°
2026-05-08 04:26 53.43720 105.42051 34930 ft 468 kts 38°
2026-05-08 04:26 53.48755 105.48981 34939 ft 471 kts 38°
2026-05-08 04:27 53.53524 105.56466 34960 ft 473 kts 54°
2026-05-08 04:27 53.55021 105.61330 34979 ft 475 kts 70°
2026-05-08 04:27 53.55672 105.66786 34976 ft 476 kts 87°
2026-05-08 04:28 53.55400 105.72303 34975 ft 477 kts 104°
2026-05-08 04:28 53.54220 105.77525 34981 ft 476 kts 120°
2026-05-08 04:28 53.52255 105.81937 34979 ft 475 kts 136°
2026-05-08 04:28 53.49619 105.85287 34982 ft 473 kts 153°
2026-05-08 04:29 53.46604 105.87238 34976 ft 471 kts 169°
2026-05-08 04:29 53.43336 105.87711 34984 ft 467 kts 186°
2026-05-08 04:29 53.40211 105.86666 34984 ft 464 kts 202°
2026-05-08 04:29 53.37329 105.84137 34985 ft 461 kts 218°
2026-05-08 04:30 53.35049 105.80415 34988 ft 458 kts 235°
2026-05-08 04:30 53.33247 105.76027 34990 ft 458 kts 232°
2026-05-08 04:30 53.28748 105.68487 34983 ft 462 kts 224°
2026-05-08 04:31 53.23982 105.61276 34951 ft 464 kts 227°
2026-05-08 04:31 53.22068 105.57027 34965 ft 460 kts 244°
2026-05-08 04:31 53.20962 105.52042 35012 ft 456 kts 260°
2026-05-08 04:32 53.20752 105.46841 34981 ft 455 kts 276°
2026-05-08 04:32 53.21447 105.41753 34982 ft 453 kts 293°
2026-05-08 04:32 53.22979 105.37252 35019 ft 452 kts 309°
2026-05-08 04:32 53.25265 105.33590 34979 ft 454 kts 324°
2026-05-08 04:33 53.28061 105.31218 34983 ft 455 kts 341°
2026-05-08 04:33 53.31173 105.30278 35009 ft 457 kts 357°
2026-05-08 04:33 53.34329 105.30852 34977 ft 461 kts 14°
2026-05-08 04:33 53.37243 105.32887 34990 ft 464 kts 30°
2026-05-08 04:34 53.42264 105.39719 34952 ft 469 kts 38°
2026-05-08 04:34 53.47310 105.46686 34982 ft 470 kts 38°
2026-05-08 04:35 53.52319 105.53732 34942 ft 473 kts 44°
2026-05-08 04:35 53.54272 105.58085 34977 ft 474 kts 60°
2026-05-08 04:35 53.55459 105.63286 34997 ft 476 kts 76°
2026-05-08 04:36 53.55748 105.68758 34977 ft 478 kts 93°
2026-05-08 04:36 53.55128 105.74196 34986 ft 478 kts 110°
2026-05-08 04:36 53.53624 105.79186 35005 ft 477 kts 126°
2026-05-08 04:36 53.51379 105.83258 34981 ft 477 kts 142°
2026-05-08 04:37 53.48590 105.86097 34985 ft 474 kts 159°
2026-05-08 04:37 53.45443 105.87536 35006 ft 471 kts 175°
2026-05-08 04:37 53.42186 105.87463 34984 ft 468 kts 191°
2026-05-08 04:37 53.39088 105.85871 34982 ft 465 kts 208°
2026-05-08 04:38 53.36438 105.82947 35004 ft 461 kts 224°
2026-05-08 04:38 53.34363 105.78854 34984 ft 458 kts 239°
2026-05-08 04:38 53.30244 105.70837 34992 ft 462 kts 225°
2026-05-08 04:39 53.25479 105.63560 34954 ft 465 kts 223°
2026-05-08 04:39 53.21546 105.55282 34965 ft 460 kts 250°
2026-05-08 04:40 53.20752 105.50141 35008 ft 456 kts 266°
2026-05-08 04:40 53.20865 105.44908 34987 ft 455 kts 282°
2026-05-08 04:40 53.21869 105.39967 34980 ft 454 kts 298°
2026-05-08 04:40 53.23690 105.35706 35006 ft 453 kts 315°
2026-05-08 04:41 53.26168 105.32486 34994 ft 455 kts 330°
2026-05-08 04:41 53.29145 105.30561 34975 ft 457 kts 347°
2026-05-08 04:41 53.32312 105.30159 35003 ft 459 kts
2026-05-08 04:41 53.35412 105.31267 34996 ft 462 kts 19°
2026-05-08 04:42 53.38237 105.33825 34974 ft 466 kts 36°
2026-05-08 04:42 53.40689 105.37299 35006 ft 467 kts 39°
2026-05-08 04:42 53.45690 105.44296 34947 ft 471 kts 38°
2026-05-08 04:43 53.50747 105.51271 34949 ft 473 kts 38°
2026-05-08 04:43 53.53133 105.55031 34926 ft 475 kts 50°
2026-05-08 04:43 53.54862 105.59769 34997 ft 475 kts 66°
2026-05-08 04:44 53.55743 105.65040 34987 ft 478 kts 82°
2026-05-08 04:44 53.55734 105.70615 34960 ft 479 kts 99°
2026-05-08 04:44 53.54806 105.75960 34994 ft 478 kts 115°
2026-05-08 04:44 53.53045 105.80674 34986 ft 478 kts 131°
2026-05-08 04:45 53.50596 105.84372 34967 ft 476 kts 148°
2026-05-08 04:45 53.47666 105.86766 34992 ft 473 kts 164°
2026-05-08 04:45 53.44435 105.87721 34984 ft 470 kts 180°
2026-05-08 04:45 53.41179 105.87124 34979 ft 467 kts 197°
2026-05-08 04:46 53.38236 105.85078 34996 ft 463 kts 213°
2026-05-08 04:46 53.35712 105.81671 34989 ft 460 kts 230°
2026-05-08 04:46 53.31800 105.73348 34976 ft 461 kts 226°
2026-05-08 04:47 53.27101 105.65984 34969 ft 465 kts 224°
2026-05-08 04:47 53.22566 105.58404 34945 ft 463 kts 239°
2026-05-08 04:48 53.21193 105.53571 34995 ft 458 kts 255°
2026-05-08 04:48 53.20706 105.48357 35001 ft 456 kts 271°
2026-05-08 04:48 53.21119 105.43192 34964 ft 456 kts 288°
2026-05-08 04:48 53.22413 105.38427 35018 ft 454 kts 304°
2026-05-08 04:49 53.24491 105.34431 34988 ft 455 kts 320°
2026-05-08 04:49 53.27147 105.31627 34971 ft 457 kts 336°
2026-05-08 04:49 53.30200 105.30208 35016 ft 458 kts 352°
2026-05-08 04:49 53.33383 105.30288 34985 ft 461 kts
2026-05-08 04:50 53.36445 105.31894 34976 ft 464 kts 25°
2026-05-08 04:50 53.39118 105.34871 35007 ft 466 kts 39°
2026-05-08 04:50 53.44071 105.41911 34937 ft 471 kts 38°
2026-05-08 04:51 53.49135 105.48924 34949 ft 473 kts 38°
2026-05-08 04:51 53.53859 105.56546 34972 ft 475 kts 55°
2026-05-08 04:52 53.55309 105.61555 34986 ft 477 kts 71°
2026-05-08 04:52 53.55882 105.67082 34972 ft 479 kts 89°
2026-05-08 04:52 53.55527 105.72603 34980 ft 479 kts 105°
2026-05-08 04:52 53.54281 105.77773 34977 ft 479 kts 121°
2026-05-08 04:53 53.52246 105.82153 34974 ft 478 kts 137°
2026-05-08 04:53 53.49588 105.85407 34992 ft 476 kts 154°
2026-05-08 04:53 53.46465 105.87326 34979 ft 474 kts 170°
2026-05-08 04:53 53.43204 105.87707 34973 ft 471 kts 186°
2026-05-08 04:54 53.40055 105.86572 34995 ft 467 kts 202°
2026-05-08 04:54 53.37210 105.84009 34989 ft 464 kts 219°
2026-05-08 04:54 53.34943 105.80266 34974 ft 461 kts 235°
2026-05-08 04:54 53.33134 105.75845 35000 ft 460 kts 232°
2026-05-08 04:55 53.28585 105.68240 34968 ft 465 kts 224°
2026-05-08 04:55 53.23787 105.60944 34960 ft 466 kts 229°
2026-05-08 04:56 53.21927 105.56602 34948 ft 463 kts 245°
2026-05-08 04:56 53.20890 105.51574 35012 ft 458 kts 261°
2026-05-08 04:56 53.20743 105.46337 34977 ft 457 kts 277°
2026-05-08 04:56 53.21512 105.41193 34970 ft 456 kts 294°
2026-05-08 04:57 53.23125 105.36687 35011 ft 454 kts 310°
2026-05-08 04:57 53.25432 105.33131 34961 ft 456 kts 326°
2026-05-08 04:57 53.28259 105.30831 34983 ft 457 kts 342°
2026-05-08 04:57 53.31390 105.29963 34998 ft 459 kts 358°
2026-05-08 04:58 53.34531 105.30598 34958 ft 463 kts 14°
2026-05-08 04:58 53.37496 105.32755 34992 ft 465 kts 31°
2026-05-08 04:58 53.42508 105.39634 34940 ft 470 kts 38°
2026-05-08 04:59 53.47559 105.46640 34974 ft 472 kts 38°
2026-05-08 04:59 53.52564 105.53747 34947 ft 474 kts 45°
2026-05-08 05:00 53.54509 105.58186 34968 ft 476 kts 61°
2026-05-08 05:00 53.55661 105.63407 34975 ft 478 kts 77°
2026-05-08 05:00 53.55917 105.68926 34970 ft 479 kts 94°
2026-05-08 05:00 53.55253 105.74410 34973 ft 480 kts 110°
2026-05-08 05:01 53.53741 105.79323 34977 ft 479 kts 127°
2026-05-08 05:01 53.51462 105.83392 34975 ft 477 kts 143°
2026-05-08 05:01 53.48641 105.86216 34975 ft 475 kts 159°
2026-05-08 05:01 53.45442 105.87632 34971 ft 473 kts 175°
2026-05-08 05:02 53.42214 105.87508 34984 ft 469 kts 191°
2026-05-08 05:02 53.39102 105.85871 34980 ft 466 kts 208°
2026-05-08 05:02 53.36431 105.82882 34981 ft 463 kts 224°
2026-05-08 05:02 53.34366 105.78748 34995 ft 460 kts 238°
2026-05-08 05:03 53.30159 105.70689 34970 ft 464 kts 225°
2026-05-08 05:03 53.25420 105.63470 34949 ft 468 kts 223°
2026-05-08 05:04 53.23096 105.59628 34954 ft 465 kts 234°
2026-05-08 05:04 53.21486 105.55027 34996 ft 461 kts 250°
2026-05-08 05:04 53.20725 105.49950 34992 ft 458 kts 266°
2026-05-08 05:04 53.20855 105.44690 34980 ft 457 kts 282°
2026-05-08 05:05 53.21892 105.39699 35003 ft 455 kts 299°
2026-05-08 05:05 53.23750 105.35406 34997 ft 456 kts 315°
2026-05-08 05:05 53.26239 105.32212 34978 ft 457 kts 330°
2026-05-08 05:05 53.29230 105.30317 35005 ft 458 kts 347°
2026-05-08 05:06 53.32402 105.29923 34987 ft 461 kts
2026-05-08 05:06 53.35525 105.31050 34974 ft 465 kts 20°
2026-05-08 05:06 53.38348 105.33627 35004 ft 467 kts 36°
2026-05-08 05:06 53.40844 105.37163 34993 ft 469 kts 39°
2026-05-08 05:07 53.45873 105.44198 34975 ft 471 kts 38°
2026-05-08 05:07 53.50928 105.51192 34929 ft 475 kts 38°
2026-05-08 05:08 53.53311 105.54983 34945 ft 476 kts 50°
2026-05-08 05:08 53.55026 105.59716 34992 ft 477 kts 66°
2026-05-08 05:08 53.55908 105.65072 34976 ft 479 kts 83°
2026-05-08 05:08 53.55885 105.70592 34970 ft 480 kts 99°
2026-05-08 05:09 53.54957 105.75938 34986 ft 479 kts 115°
2026-05-08 05:09 53.53204 105.80638 34980 ft 479 kts 131°
2026-05-08 05:09 53.50741 105.84373 34969 ft 478 kts 147°
2026-05-08 05:09 53.47772 105.86809 34993 ft 475 kts 164°
2026-05-08 05:10 53.44547 105.87775 34987 ft 473 kts 180°
2026-05-08 05:10 53.38295 105.85174 34991 ft 467 kts 212°
2026-05-08 05:10 53.35766 105.81834 34987 ft 464 kts 229°
2026-05-08 05:11 53.33863 105.77514 34976 ft 462 kts 237°
2026-05-08 05:11 53.31837 105.73427 34982 ft 464 kts 226°
2026-05-08 05:11 53.29510 105.69671 34973 ft 466 kts 224°
2026-05-08 05:12 53.24689 105.62381 34970 ft 468 kts 224°
2026-05-08 05:12 53.22548 105.58405 34948 ft 466 kts 238°
2026-05-08 05:12 53.21145 105.53542 34970 ft 461 kts 255°
2026-05-08 05:12 53.20640 105.48354 35009 ft 458 kts 271°
2026-05-08 05:13 53.21028 105.43116 34960 ft 458 kts 287°
2026-05-08 05:13 53.22302 105.38298 34994 ft 456 kts 303°
2026-05-08 05:13 53.24334 105.34301 34999 ft 457 kts 319°
2026-05-08 05:13 53.26980 105.31406 34959 ft 459 kts 335°
2026-05-08 05:14 53.30038 105.29894 35003 ft 459 kts 352°
2026-05-08 05:14 53.33221 105.29887 34991 ft 462 kts
2026-05-08 05:14 53.36303 105.31393 34963 ft 465 kts 24°
2026-05-08 05:14 53.39015 105.34301 35001 ft 467 kts 39°
2026-05-08 05:15 53.41468 105.37863 34984 ft 470 kts 39°
2026-05-08 05:15 53.46475 105.44872 34985 ft 472 kts 38°
2026-05-08 05:16 53.51535 105.51898 34933 ft 475 kts 38°
2026-05-08 05:16 53.53808 105.55951 34964 ft 476 kts 54°
2026-05-08 05:16 53.55332 105.60895 34975 ft 478 kts 70°
2026-05-08 05:16 53.55987 105.66322 34973 ft 479 kts 87°
2026-05-08 05:17 53.55730 105.71892 34975 ft 480 kts 103°
2026-05-08 05:17 53.54560 105.77183 34976 ft 480 kts 119°
2026-05-08 05:17 53.52589 105.81683 34974 ft 480 kts 136°
2026-05-08 05:17 53.49985 105.85077 34975 ft 478 kts 152°
2026-05-08 05:18 53.46928 105.87144 34980 ft 475 kts 168°
2026-05-08 05:18 53.43665 105.87721 34972 ft 473 kts 184°
2026-05-08 05:18 53.40478 105.86778 34980 ft 470 kts 200°
2026-05-08 05:18 53.37556 105.84381 34972 ft 466 kts 216°
2026-05-08 05:19 53.35184 105.80755 34980 ft 463 kts 233°
2026-05-08 05:19 53.31207 105.72388 34962 ft 465 kts 226°
2026-05-08 05:20 53.26478 105.65052 34962 ft 468 kts 224°
2026-05-08 05:20 53.22081 105.57107 34956 ft 465 kts 243°
2026-05-08 05:20 53.20933 105.52125 35000 ft 460 kts 259°
2026-05-08 05:21 53.20670 105.46880 34978 ft 459 kts 275°
2026-05-08 05:21 53.21320 105.41679 34969 ft 457 kts 292°
2026-05-08 05:21 53.22831 105.37049 35009 ft 456 kts 308°
2026-05-08 05:21 53.25052 105.33336 34973 ft 458 kts 323°
2026-05-08 05:22 53.27836 105.30818 34971 ft 459 kts 340°
2026-05-08 05:22 53.30967 105.29726 35007 ft 460 kts 356°
2026-05-08 05:22 53.34129 105.30142 34974 ft 464 kts 12°
2026-05-08 05:22 53.37154 105.32079 34968 ft 466 kts 28°
2026-05-08 05:23 53.39751 105.35299 35010 ft 468 kts 40°
2026-05-08 05:23 53.44723 105.42361 34930 ft 472 kts 38°
2026-05-08 05:24 53.49771 105.49352 34926 ft 475 kts 38°
2026-05-08 05:24 53.54379 105.57227 34966 ft 477 kts 58°
2026-05-08 05:24 53.55673 105.62318 34960 ft 479 kts 74°
2026-05-08 05:25 53.56090 105.67862 34966 ft 480 kts 91°
2026-05-08 05:25 53.55583 105.73399 34967 ft 480 kts 108°
2026-05-08 05:25 53.54189 105.78499 34968 ft 480 kts 124°
2026-05-08 05:25 53.52061 105.82684 34961 ft 479 kts 140°
2026-05-08 05:26 53.49270 105.85793 34975 ft 477 kts 156°
2026-05-08 05:26 53.46127 105.87458 34977 ft 474 kts 172°
2026-05-08 05:26 53.42886 105.87611 34967 ft 472 kts 188°
2026-05-08 05:26 53.39735 105.86250 34982 ft 468 kts 205°
2026-05-08 05:27 53.36945 105.83483 34977 ft 465 kts 221°
2026-05-08 05:27 53.34755 105.79556 34985 ft 462 kts 237°
2026-05-08 05:27 53.32874 105.75213 34979 ft 464 kts 229°
2026-05-08 05:28 53.28255 105.67727 34969 ft 467 kts 224°
2026-05-08 05:28 53.23468 105.60371 34948 ft 468 kts 231°
2026-05-08 05:28 53.21692 105.55875 34958 ft 464 kts 247°
2026-05-08 05:29 53.20761 105.50807 34999 ft 461 kts 263°
2026-05-08 05:29 53.20724 105.45431 34976 ft 460 kts 279°
2026-05-08 05:29 53.21593 105.40356 34968 ft 459 kts 296°
2026-05-08 05:29 53.23275 105.35940 34995 ft 458 kts 312°
2026-05-08 05:30 53.25670 105.32444 34978 ft 459 kts 327°
2026-05-08 05:30 53.28579 105.30223 34966 ft 460 kts 343°
2026-05-08 05:30 53.31735 105.29485 34988 ft 462 kts 360°
2026-05-08 05:30 53.34867 105.30245 34977 ft 465 kts 16°
2026-05-08 05:31 53.37798 105.32479 34959 ft 468 kts 32°
2026-05-08 05:31 53.42814 105.39442 34957 ft 471 kts 38°
2026-05-08 05:32 53.47856 105.46461 34956 ft 474 kts 38°
2026-05-08 05:32 53.52875 105.53661 34923 ft 477 kts 46°
2026-05-08 05:32 53.54779 105.58230 34963 ft 478 kts 63°
2026-05-08 05:33 53.55864 105.63544 34989 ft 479 kts 78°
2026-05-08 05:33 53.56043 105.69106 34964 ft 481 kts 95°
2026-05-08 05:33 53.55306 105.74558 34964 ft 481 kts 111°
2026-05-08 05:33 53.53738 105.79400 34981 ft 480 kts 127°
2026-05-08 05:34 53.51424 105.83392 34963 ft 480 kts 143°
2026-05-08 05:34 53.48515 105.86186 34974 ft 477 kts 160°
2026-05-08 05:34 53.45300 105.87500 34989 ft 475 kts 176°
2026-05-08 05:34 53.42014 105.87281 34971 ft 472 kts 192°
2026-05-08 05:35 53.38916 105.85551 34977 ft 469 kts 208°
2026-05-08 05:35 53.36266 105.82492 34996 ft 466 kts 225°
2026-05-08 05:35 53.34238 105.78381 34989 ft 464 kts 238°
2026-05-08 05:35 53.32246 105.74110 34974 ft 466 kts 227°
2026-05-08 05:36 53.29946 105.70349 34972 ft 468 kts 225°
2026-05-08 05:36 53.25122 105.63026 34951 ft 471 kts 223°
2026-05-08 05:36 53.22865 105.59142 34955 ft 468 kts 236°
2026-05-08 05:37 53.21306 105.54369 34977 ft 464 kts 252°
2026-05-08 05:37 53.20631 105.49181 34987 ft 462 kts 268°
2026-05-08 05:37 53.20858 105.43896 34975 ft 460 kts 284°
2026-05-08 05:37 53.21975 105.38941 34987 ft 459 kts 300°
2026-05-08 05:38 53.23895 105.34705 34982 ft 459 kts 316°
2026-05-08 05:38 53.26470 105.31545 34981 ft 460 kts 332°
2026-05-08 05:38 53.29463 105.29746 34989 ft 461 kts 348°
2026-05-08 05:38 53.32624 105.29424 34984 ft 464 kts
2026-05-08 05:39 53.35796 105.30636 34986 ft 467 kts 20°
2026-05-08 05:39 53.38621 105.33280 34976 ft 470 kts 37°
2026-05-08 05:39 53.41121 105.36849 34996 ft 471 kts 39°
2026-05-08 05:40 53.46149 105.43886 34948 ft 474 kts 38°
2026-05-08 05:40 53.51273 105.50943 34940 ft 476 kts 38°
2026-05-08 05:40 53.53656 105.54779 34931 ft 478 kts 51°
2026-05-08 05:41 53.55349 105.59551 34993 ft 478 kts 66°
2026-05-08 05:41 53.56209 105.64932 34975 ft 480 kts 82°
2026-05-08 05:41 53.56157 105.70561 34957 ft 481 kts 99°
2026-05-08 05:41 53.55187 105.75909 34993 ft 480 kts 116°
2026-05-08 05:42 53.53417 105.80561 34979 ft 480 kts 131°
2026-05-08 05:42 53.50937 105.84267 34949 ft 479 kts 148°
2026-05-08 05:42 53.47927 105.86681 35002 ft 476 kts 164°
2026-05-08 05:42 53.44665 105.87615 34968 ft 475 kts 180°
2026-05-08 05:43 53.41410 105.87005 34959 ft 472 kts 197°
2026-05-08 05:43 53.38385 105.84895 34998 ft 468 kts 213°
2026-05-08 05:43 53.35876 105.81541 34961 ft 466 kts 229°
2026-05-08 05:44 53.31765 105.73216 34984 ft 466 kts 226°
2026-05-08 05:44 53.27020 105.65854 34958 ft 470 kts 223°
2026-05-08 05:45 53.22440 105.58129 34924 ft 468 kts 239°
2026-05-08 05:45 53.21097 105.53288 34997 ft 463 kts 255°
2026-05-08 05:45 53.20611 105.47985 34990 ft 462 kts 271°
2026-05-08 05:45 53.21035 105.42743 34955 ft 461 kts 288°
2026-05-08 05:46 53.22341 105.37918 35008 ft 459 kts 304°
2026-05-08 05:46 53.24423 105.33872 34975 ft 460 kts 319°
2026-05-08 05:46 53.27074 105.31017 34964 ft 461 kts 335°
2026-05-08 05:46 53.30141 105.29519 35010 ft 461 kts 351°
2026-05-08 05:47 53.33360 105.29516 34972 ft 465 kts
2026-05-08 05:47 53.36427 105.31020 34970 ft 467 kts 24°
2026-05-08 05:47 53.39177 105.33958 34998 ft 469 kts 38°
2026-05-08 05:48 53.44156 105.41058 34931 ft 474 kts 38°
2026-05-08 05:48 53.49225 105.48109 34944 ft 476 kts 38°
2026-05-08 05:49 53.54037 105.55706 34964 ft 478 kts 54°
2026-05-08 05:49 53.55574 105.60699 34955 ft 480 kts 70°
2026-05-08 05:49 53.56231 105.66235 34957 ft 481 kts 87°
2026-05-08 05:49 53.55958 105.71797 34974 ft 481 kts 103°
2026-05-08 05:50 53.54798 105.77022 34960 ft 481 kts 119°
2026-05-08 05:50 53.52856 105.81479 34963 ft 480 kts 135°
2026-05-08 05:50 53.50207 105.84945 34972 ft 478 kts 152°
2026-05-08 05:50 53.47173 105.87005 34971 ft 477 kts 167°
2026-05-08 05:51 53.43880 105.87598 34965 ft 474 kts 184°
2026-05-08 05:51 53.40686 105.86670 34969 ft 472 kts 200°
2026-05-08 05:51 53.37754 105.84296 34968 ft 469 kts 216°
2026-05-08 05:51 53.35355 105.80682 34979 ft 466 kts 232°
2026-05-08 05:52 53.33446 105.76289 34988 ft 466 kts 232°
2026-05-08 05:52 53.28869 105.68659 34963 ft 470 kts 224°
2026-05-08 05:53 53.23990 105.61291 34943 ft 472 kts 227°
2026-05-08 05:53 53.22011 105.56941 34954 ft 468 kts 243°
2026-05-08 05:53 53.20874 105.51970 35005 ft 464 kts 259°
2026-05-08 05:53 53.20607 105.46601 34969 ft 463 kts 275°
2026-05-08 05:54 53.21262 105.41381 34970 ft 461 kts 291°
2026-05-08 05:54 53.22785 105.36683 35003 ft 460 kts 308°
2026-05-08 05:54 53.25007 105.32930 34958 ft 462 kts 323°
2026-05-08 05:54 53.27826 105.30344 34978 ft 462 kts 339°
2026-05-08 05:55 53.30956 105.29202 34997 ft 464 kts 355°
2026-05-08 05:55 53.34143 105.29557 34953 ft 467 kts 11°
2026-05-08 05:55 53.37196 105.31436 34977 ft 469 kts 28°
2026-05-08 05:55 53.39815 105.34593 34988 ft 471 kts 39°
2026-05-08 05:56 53.42296 105.38178 34948 ft 474 kts 38°
2026-05-08 05:56 53.47385 105.45264 34955 ft 475 kts 38°
2026-05-08 05:57 53.52458 105.52383 34915 ft 478 kts 42°
2026-05-08 05:57 53.54565 105.56709 34947 ft 479 kts 58°
2026-05-08 05:57 53.55874 105.61817 34977 ft 480 kts 74°
2026-05-08 05:57 53.56313 105.67286 34946 ft 481 kts 91°
2026-05-08 05:58 53.55839 105.72840 34958 ft 481 kts 107°
2026-05-08 05:58 53.54470 105.77984 34979 ft 481 kts 123°
2026-05-08 05:58 53.52367 105.82233 34940 ft 481 kts 139°
2026-05-08 05:58 53.49585 105.85417 34966 ft 479 kts 155°
2026-05-08 05:59 53.46449 105.87163 34974 ft 477 kts 171°
2026-05-08 05:59 53.43152 105.87409 34939 ft 476 kts 187°
2026-05-08 05:59 53.39970 105.86125 34969 ft 472 kts 204°
2026-05-08 05:59 53.37123 105.83421 34966 ft 469 kts 220°
2026-05-08 06:00 53.34844 105.79501 34948 ft 467 kts 236°
2026-05-08 06:00 53.30581 105.71322 34953 ft 469 kts 225°
2026-05-08 06:01 53.25772 105.63990 34947 ft 472 kts 223°
2026-05-08 06:01 53.21613 105.55677 34933 ft 468 kts 248°
2026-05-08 06:01 53.20695 105.50578 34993 ft 464 kts 263°
2026-05-08 06:02 53.20654 105.45265 34955 ft 463 kts 279°
2026-05-08 06:02 53.21525 105.40107 34954 ft 462 kts 295°
2026-05-08 06:02 53.23248 105.35573 34992 ft 461 kts 311°
2026-05-08 06:02 53.25642 105.32067 34965 ft 462 kts 327°
2026-05-08 06:03 53.28521 105.29839 34973 ft 463 kts 343°
2026-05-08 06:03 53.31702 105.29044 35007 ft 465 kts 359°
2026-05-08 06:03 53.34911 105.29765 34967 ft 469 kts 15°
2026-05-08 06:03 53.37870 105.31962 34976 ft 472 kts 31°
2026-05-08 06:04 53.40452 105.35375 35015 ft 473 kts 39°
2026-05-08 06:04 53.45525 105.42512 34946 ft 477 kts 38°
2026-05-08 06:05 53.50636 105.49594 34928 ft 479 kts 38°
2026-05-08 06:05 53.55064 105.57819 34984 ft 481 kts 62°
2026-05-08 06:05 53.56183 105.63042 34963 ft 483 kts 77°
2026-05-08 06:06 53.56418 105.68662 34966 ft 483 kts 95°
2026-05-08 06:06 53.55743 105.74116 34992 ft 483 kts 110°
2026-05-08 06:06 53.54211 105.79093 34966 ft 483 kts 126°
2026-05-08 06:06 53.51924 105.83187 34966 ft 481 kts 143°
2026-05-08 06:07 53.49073 105.86054 35000 ft 478 kts 159°
2026-05-08 06:07 53.45879 105.87505 34973 ft 476 kts 175°
2026-05-08 06:07 53.42606 105.87429 34966 ft 473 kts 191°
2026-05-08 06:07 53.39477 105.85838 34995 ft 470 kts 207°
2026-05-08 06:08 53.36767 105.82906 34972 ft 467 kts 223°
2026-05-08 06:08 53.34622 105.78774 34975 ft 464 kts 237°
2026-05-08 06:08 53.32604 105.74600 34991 ft 466 kts 227°
2026-05-08 06:09 53.27864 105.67120 34948 ft 470 kts 223°
2026-05-08 06:09 53.23124 105.59697 34927 ft 471 kts 233°
2026-05-08 06:09 53.21469 105.55049 34958 ft 466 kts 250°
2026-05-08 06:10 53.20667 105.49841 34996 ft 463 kts 265°
2026-05-08 06:10 53.20769 105.44492 34952 ft 462 kts 282°
2026-05-08 06:10 53.21778 105.39435 34972 ft 461 kts 298°
2026-05-08 06:10 53.23597 105.35080 34980 ft 461 kts 314°
2026-05-08 06:11 53.26090 105.31737 34948 ft 462 kts 329°
2026-05-08 06:11 53.29037 105.29726 34978 ft 463 kts 346°
2026-05-08 06:11 53.32206 105.29166 34979 ft 465 kts
2026-05-08 06:11 53.35383 105.30115 34954 ft 469 kts 18°
2026-05-08 06:12 53.38296 105.32542 34978 ft 471 kts 34°
2026-05-08 06:12 53.43314 105.39592 34935 ft 475 kts 38°
2026-05-08 06:13 53.48396 105.46661 34961 ft 476 kts 38°
2026-05-08 06:13 53.53414 105.53924 34927 ft 479 kts 47°
2026-05-08 06:13 53.55264 105.58544 34968 ft 480 kts 63°
2026-05-08 06:14 53.56294 105.63808 34964 ft 481 kts 79°
2026-05-08 06:14 53.56435 105.69437 34959 ft 483 kts 96°
2026-05-08 06:14 53.55658 105.74902 34966 ft 483 kts 112°
2026-05-08 06:14 53.54017 105.79822 34969 ft 482 kts 128°
2026-05-08 06:15 53.51676 105.83750 34962 ft 481 kts 144°
2026-05-08 06:15 53.48735 105.86498 34975 ft 479 kts 160°
2026-05-08 06:15 53.45551 105.87761 34965 ft 478 kts 176°
2026-05-08 06:15 53.42253 105.87518 34966 ft 475 kts 192°
2026-05-08 06:16 53.39127 105.85759 34975 ft 472 kts 208°
2026-05-08 06:16 53.36472 105.82697 34972 ft 469 kts 225°
2026-05-08 06:16 53.34405 105.78516 34985 ft 466 kts 237°
2026-05-08 06:17 53.27647 105.66801 34968 ft 472 kts 224°
2026-05-08 06:17 53.22923 105.59279 34931 ft 472 kts 235°
2026-05-08 06:18 53.21324 105.54504 34982 ft 467 kts 251°
2026-05-08 06:18 53.20601 105.49264 34995 ft 465 kts 267°
2026-05-08 06:18 53.20783 105.43920 34961 ft 464 kts 283°
2026-05-08 06:18 53.21858 105.38917 34987 ft 462 kts 299°
2026-05-08 06:19 53.23740 105.34603 34986 ft 462 kts 314°
2026-05-08 06:19 53.26255 105.31365 34963 ft 463 kts 330°
2026-05-08 06:19 53.29262 105.29422 34993 ft 463 kts 347°
2026-05-08 06:19 53.32449 105.28968 34986 ft 466 kts
2026-05-08 06:20 53.35628 105.30033 34961 ft 469 kts 19°
2026-05-08 06:20 53.38509 105.32563 34995 ft 471 kts 35°
2026-05-08 06:20 53.43529 105.39629 34933 ft 476 kts 38°
2026-05-08 06:21 53.48630 105.46725 34962 ft 477 kts 38°
2026-05-08 06:21 53.53622 105.54097 34937 ft 480 kts 49°
2026-05-08 06:22 53.55388 105.58836 34978 ft 481 kts 65°
2026-05-08 06:22 53.56327 105.64214 34962 ft 483 kts 81°
2026-05-08 06:22 53.56361 105.69820 34962 ft 484 kts 98°
2026-05-08 06:22 53.55485 105.75251 34976 ft 484 kts 114°
2026-05-08 06:23 53.53764 105.80097 34960 ft 485 kts 130°
2026-05-08 06:23 53.51334 105.83961 34960 ft 483 kts 146°
2026-05-08 06:23 53.48378 105.86562 34981 ft 481 kts 162°
2026-05-08 06:23 53.45128 105.87718 34966 ft 479 kts 178°
2026-05-08 06:24 53.41848 105.87353 34958 ft 477 kts 194°
2026-05-08 06:24 53.38715 105.85461 34981 ft 473 kts 210°
2026-05-08 06:24 53.36088 105.82286 34986 ft 470 kts 226°
2026-05-08 06:24 53.34062 105.78025 34974 ft 468 kts 238°
2026-05-08 06:25 53.32041 105.73772 34982 ft 470 kts 227°
2026-05-08 06:25 53.29699 105.69965 34977 ft 472 kts 225°
2026-05-08 06:25 53.24861 105.62639 34962 ft 474 kts 223°
2026-05-08 06:26 53.22626 105.58612 34956 ft 471 kts 237°
2026-05-08 06:26 53.21151 105.53767 34968 ft 467 kts 253°
2026-05-08 06:26 53.20560 105.48544 34997 ft 464 kts 269°
2026-05-08 06:26 53.20865 105.43235 34977 ft 462 kts 285°
2026-05-08 06:27 53.22060 105.38281 34978 ft 461 kts 301°
2026-05-08 06:27 53.24047 105.34102 34988 ft 461 kts 317°
2026-05-08 06:27 53.26666 105.31023 34977 ft 462 kts 333°
2026-05-08 06:27 53.29691 105.29308 34980 ft 464 kts 349°
2026-05-08 06:28 53.32906 105.29078 34980 ft 466 kts
2026-05-08 06:28 53.36028 105.30353 34973 ft 469 kts 21°
2026-05-08 06:28 53.38881 105.33106 34982 ft 472 kts 37°
2026-05-08 06:28 53.41359 105.36646 34982 ft 474 kts 39°
2026-05-08 06:29 53.46453 105.43765 34948 ft 477 kts 38°
2026-05-08 06:29 53.51559 105.50834 34932 ft 479 kts 38°
2026-05-08 06:30 53.53939 105.54753 34923 ft 481 kts 51°
2026-05-08 06:30 53.55619 105.59640 34955 ft 482 kts 67°
2026-05-08 06:30 53.56433 105.65021 34970 ft 483 kts 84°
2026-05-08 06:30 53.56358 105.70630 34951 ft 485 kts 99°
2026-05-08 06:31 53.55371 105.76025 34961 ft 484 kts 116°
2026-05-08 06:31 53.53537 105.80795 34959 ft 484 kts 132°
2026-05-08 06:31 53.51055 105.84474 34951 ft 483 kts 148°
2026-05-08 06:31 53.48063 105.86897 34963 ft 481 kts 163°
2026-05-08 06:32 53.44779 105.87869 34958 ft 479 kts 180°
2026-05-08 06:32 53.41485 105.87296 34960 ft 476 kts 196°
2026-05-08 06:32 53.38455 105.85263 34963 ft 473 kts 212°
2026-05-08 06:32 53.35860 105.81884 34969 ft 470 kts 228°
2026-05-08 06:33 53.31841 105.73409 34960 ft 470 kts 226°
2026-05-08 06:33 53.27058 105.65920 34960 ft 473 kts 224°
2026-05-08 06:34 53.22435 105.58144 34934 ft 471 kts 239°
2026-05-08 06:34 53.21050 105.53249 34975 ft 467 kts 255°
2026-05-08 06:34 53.20540 105.47968 34977 ft 465 kts 271°
2026-05-08 06:35 53.20932 105.42687 34958 ft 463 kts 287°
2026-05-08 06:35 53.22205 105.37793 34974 ft 462 kts 303°
2026-05-08 06:35 53.24260 105.33690 34977 ft 462 kts 318°
2026-05-08 06:35 53.26916 105.30727 34960 ft 463 kts 334°
2026-05-08 06:36 53.29956 105.29136 34967 ft 465 kts 350°
2026-05-08 06:36 53.33181 105.29029 34974 ft 467 kts
2026-05-08 06:36 53.36303 105.30434 34959 ft 470 kts 22°
2026-05-08 06:36 53.39108 105.33282 34969 ft 473 kts 38°
2026-05-08 06:37 53.44112 105.40385 34930 ft 477 kts 38°
2026-05-08 06:37 53.49211 105.47458 34956 ft 478 kts 38°
2026-05-08 06:38 53.54121 105.55027 34925 ft 481 kts 52°
2026-05-08 06:38 53.55704 105.59872 34963 ft 482 kts 68°
2026-05-08 06:38 53.56464 105.65362 34973 ft 484 kts 85°
2026-05-08 06:39 53.56309 105.71026 34956 ft 485 kts 101°
2026-05-08 06:39 53.55250 105.76364 34968 ft 485 kts 117°
2026-05-08 06:39 53.53377 105.81023 34966 ft 485 kts 133°
2026-05-08 06:39 53.50841 105.84641 34964 ft 484 kts 149°
2026-05-08 06:40 53.47808 105.86982 34971 ft 482 kts 165°
2026-05-08 06:40 53.44516 105.87852 34974 ft 479 kts 181°
2026-05-08 06:40 53.41204 105.87177 34972 ft 477 kts 197°
2026-05-08 06:40 53.38180 105.85038 34969 ft 474 kts 213°
2026-05-08 06:41 53.35645 105.81619 34980 ft 470 kts 229°
2026-05-08 06:41 53.33724 105.77235 34980 ft 468 kts 237°
2026-05-08 06:41 53.31639 105.73100 34959 ft 471 kts 226°
2026-05-08 06:41 53.29253 105.69273 34959 ft 473 kts 224°
2026-05-08 06:42 53.24387 105.61925 34954 ft 475 kts 225°
2026-05-08 06:42 53.22264 105.57700 34935 ft 472 kts 240°
2026-05-08 06:42 53.20965 105.52773 34984 ft 467 kts 256°
2026-05-08 06:43 53.20533 105.47454 34975 ft 465 kts 272°
2026-05-08 06:43 53.21021 105.42117 34966 ft 463 kts 288°
2026-05-08 06:43 53.22376 105.37295 34982 ft 462 kts 304°
2026-05-08 06:43 53.24504 105.33277 34971 ft 463 kts 320°
2026-05-08 06:44 53.27209 105.30442 34972 ft 464 kts 336°
2026-05-08 06:44 53.30303 105.28979 34979 ft 465 kts 352°
2026-05-08 06:44 53.33538 105.29024 34972 ft 468 kts
2026-05-08 06:44 53.36622 105.30576 35011 ft 470 kts 24°
2026-05-08 06:45 53.39416 105.33566 34978 ft 474 kts 38°
2026-05-08 06:45 53.41907 105.37119 34981 ft 476 kts 38°
2026-05-08 06:45 53.47026 105.44178 34934 ft 479 kts 37°
2026-05-08 06:46 53.52219 105.51329 34954 ft 480 kts 38°
2026-05-08 06:46 53.54485 105.55423 34925 ft 483 kts 54°
2026-05-08 06:46 53.55997 105.60409 34989 ft 483 kts 70°
2026-05-08 06:47 53.56662 105.65958 34980 ft 485 kts 86°
2026-05-08 06:47 53.56413 105.71564 34958 ft 486 kts 103°
2026-05-08 06:47 53.55253 105.76905 34983 ft 486 kts 119°
2026-05-08 06:47 53.53301 105.81470 34975 ft 486 kts 135°
2026-05-08 06:48 53.50688 105.84990 34963 ft 485 kts 150°
2026-05-08 06:48 53.47583 105.87197 34961 ft 482 kts 167°
2026-05-08 06:48 53.44298 105.87891 34978 ft 479 kts 182°
2026-05-08 06:48 53.41024 105.87066 34960 ft 477 kts 199°
2026-05-08 06:49 53.38052 105.84805 34953 ft 473 kts 215°
2026-05-08 06:49 53.35573 105.81265 34998 ft 469 kts 231°
2026-05-08 06:49 53.31487 105.72807 34950 ft 471 kts 226°
2026-05-08 06:50 53.26661 105.65321 34966 ft 474 kts 223°
2026-05-08 06:50 53.22140 105.57359 34936 ft 472 kts 242°
2026-05-08 06:51 53.20898 105.52382 34980 ft 467 kts 258°
2026-05-08 06:51 53.20531 105.47097 34977 ft 465 kts 273°
2026-05-08 06:51 53.21068 105.41798 34956 ft 464 kts 289°
2026-05-08 06:51 53.22485 105.36981 34989 ft 462 kts 306°
2026-05-08 06:52 53.24626 105.33070 34980 ft 463 kts 321°
2026-05-08 06:52 53.27399 105.30264 34963 ft 464 kts 337°
2026-05-08 06:52 53.30462 105.28912 34994 ft 465 kts 353°
2026-05-08 06:52 53.33701 105.29035 34882 ft 468 kts
2026-05-08 06:53 53.36804 105.30687 35021 ft 471 kts 24°
2026-05-08 06:53 53.39554 105.33717 34966 ft 475 kts 38°
2026-05-08 06:53 53.44611 105.40844 34956 ft 478 kts 38°
2026-05-08 06:54 53.49744 105.47932 34957 ft 480 kts 38°
2026-05-08 06:54 53.54585 105.55644 34911 ft 483 kts 54°
2026-05-08 06:55 53.56079 105.60693 34988 ft 483 kts 70°
2026-05-08 06:55 53.56712 105.66215 34964 ft 486 kts 87°
2026-05-08 06:55 53.56440 105.71806 34942 ft 487 kts 103°
2026-05-08 06:55 53.55254 105.77141 34987 ft 486 kts 119°
2026-05-08 06:56 53.53296 105.81679 34946 ft 487 kts 135°
2026-05-08 06:56 53.50657 105.85191 34950 ft 485 kts 151°
2026-05-08 06:56 53.47567 105.87351 34977 ft 482 kts 167°
2026-05-08 06:56 53.44228 105.88031 34958 ft 480 kts 183°
2026-05-08 06:57 53.40962 105.87163 34956 ft 477 kts 199°
2026-05-08 06:57 53.37985 105.84843 34978 ft 473 kts 215°
2026-05-08 06:57 53.35540 105.81308 34974 ft 470 kts 231°
2026-05-08 06:57 53.33644 105.76856 34970 ft 469 kts 235°
2026-05-08 06:58 53.29099 105.69023 34961 ft 473 kts 224°
2026-05-08 06:58 53.24209 105.61645 34958 ft 475 kts 225°
2026-05-08 06:59 53.22163 105.57434 34949 ft 472 kts 241°
2026-05-08 06:59 53.20898 105.52454 34969 ft 468 kts 257°
2026-05-08 06:59 53.20519 105.47098 34983 ft 465 kts 273°
2026-05-08 06:59 53.21051 105.41792 34963 ft 464 kts 289°
2026-05-08 07:00 53.22453 105.36986 34972 ft 463 kts 305°
2026-05-08 07:00 53.24590 105.33061 34985 ft 463 kts 320°
2026-05-08 07:00 53.27336 105.30250 34965 ft 465 kts 336°
2026-05-08 07:00 53.30433 105.28850 34970 ft 467 kts 352°
2026-05-08 07:01 53.33693 105.28964 34891 ft 468 kts
2026-05-08 07:01 53.36773 105.30595 35087 ft 470 kts 24°
2026-05-08 07:01 53.39515 105.33581 34991 ft 476 kts 38°
2026-05-08 07:01 53.42067 105.37199 34938 ft 478 kts 38°
2026-05-08 07:02 53.47214 105.44310 34931 ft 480 kts 38°
2026-05-08 07:02 53.52329 105.51372 34967 ft 481 kts 39°
2026-05-08 07:03 53.54589 105.55535 34891 ft 485 kts 55°